Regional Weather Roundup
Issued by NWS

Home | Current Version | Previous Version | Graphics & Text | Print | Product List | Glossary On
Versions: 1 2 3 4 5 6 7 8 9 10 11 12 13 14 15 16 17 18 19 20 21 22 23 24 25 26 27 28 29 30 31 32 33 34 35 36 37 38 39 40 41 42 43 44 45 46 47 48 49 50
000
ASUS45 KCYS 020210
RWRWY

WYOMING REGIONAL WEATHER ROUNDUP
NATIONAL WEATHER SERVICE CHEYENNE WY
700 PM MST SUN MAR 01 2015

NOTE:  "FAIR" INDICATES FEW OR NO CLOUDS BELOW 12,000 FEET
WITH NO SIGNIFICANT WEATHER AND/OR OBSTRUCTIONS TO VISIBILITY.

WYZ001-020300-
YELLOWSTONE NATIONAL PARK

CITY           SKY/WX    TMP DP  RH WIND       PRES   REMARKS
LK YELLOWSTONE   N/A      5  -6  60 NW5       30.00S WCI  -4
W YELLOWSTONE  NOT AVBL

$$
WYZ002>013-054>058-071-098>099-020300-
NORTHERN WYOMING

CITY           SKY/WX    TMP DP  RH WIND       PRES   REMARKS
JACKSON        CLEAR     12   3  67 CALM      30.01S
CODY           FAIR      21  12  68 SE10      30.07F WCI  10
GREYBULL       FAIR      25   7  46 S9        30.15S WCI  15
WORLAND        FAIR      22  12  65 SE10      30.14F WCI  11
SHERIDAN       FAIR      18   8  65 CALM      30.15F
BUFFALO        FAIR      18   8  65 S12       30.12F WCI   5
GILLETTE       FAIR      13   6  74 S9        30.19R WCI   1
HULETT         FAIR      14   5  67 S8        30.22R WCI   3
NEWCASTLE      FAIR      18   3  53 CALM      30.25R

$$
WYZ014>020-022>026-101>103-020300-
CENTRAL WYOMING

CITY           SKY/WX    TMP DP  RH WIND       PRES   REMARKS
BIG PINEY      FAIR      22  15  75 NE8       30.04S WCI  12
PINEDALE       FAIR      12   9  85 W5        30.06R WCI   4
DUBOIS         FAIR      14   9  79 SW5       30.02S WCI   6
LANDER         FAIR      17   9  70 CALM      30.09S
RIVERTON       FAIR      17   7  64 E5        30.11S WCI  10
CASPER         FAIR      23  12  62 E8        30.13R WCI  14
DOUGLAS        FAIR      20  12  71 E7        30.18F WCI  11

$$
WYZ021-027>030-104>119-020300-
SOUTHERN WYOMING

CITY           SKY/WX    TMP DP  RH WIND       PRES   REMARKS
EVANSTON       FAIR      26  19  74 E8        30.02R WCI  18
KEMMERER       FAIR      27  16  63 E6        30.02F WCI  20
FORT BRIDGER   FAIR      26  22  87 S5        30.05F WCI  20
ROCK SPRINGS   FAIR      28  17  63 CALM      30.04R
DIXON          CLOUDY    31  25  78 CALM      30.09R
RAWLINS        FAIR      25  15  66 E5        30.06F WCI  19
SARATOGA       FAIR      27  21  80 SW3       30.07S
LARAMIE        FAIR      15  11  83 S13       30.09R WCI   1
CHEYENNE       CLOUDY    20  14  77 SW13      30.17R WCI   7
TORRINGTON     FAIR      24   6  46 E8        30.23R WCI  15
PINE BLUFFS    MOCLDY    27  18  69 SE5       30.22S WCI  21

$$


USA.gov is the U.S. government's official web portal to all federal, state and local government web resources and services.